This is the latest recevied weather packets stored in our database for station/object IK6ZNK-3. If no packets are shown the sender has not sent any weather packets the latest 10 day(s).
| Time | Temp. | Humidity | Pressure | Rain* | Wind** | Luminosity | Snow |
|---|---|---|---|---|---|---|---|
| 1777918808 | 17.22° C | 79% | 1008.7 hPa | 0 mm | - | - | - |
| 1777918208 | 18.33° C | 76% | 1008.4 hPa | 0 mm | - | - | - |
| 1777917608 | 17.78° C | 75% | 1008.3 hPa | 0 mm | - | - | - |
| 1777917008 | 17.78° C | 76% | 1008.4 hPa | 0 mm | - | - | - |
| 1777916410 | 18.33° C | 75% | 1008.4 hPa | 0 mm | - | - | - |
| 1777915812 | 18.89° C | 74% | 1008.6 hPa | 0 mm | - | - | - |
| 1777915210 | 19.44° C | 72% | 1008.3 hPa | 0 mm | - | - | - |
| 1777914609 | 19.44° C | 70% | 1008.4 hPa | 0 mm | - | - | - |
| 1777914009 | 20° C | 70% | 1008.4 hPa | 0 mm | - | - | - |
| 1777913408 | 20° C | 70% | 1008.5 hPa | 0 mm | - | - | - |
| 1777912808 | 19.44° C | 68% | 1008.7 hPa | 0 mm | - | - | - |
| 1777912209 | 19.44° C | 68% | 1008.6 hPa | 0 mm | - | - | - |
| 1777911608 | 19.44° C | 68% | 1008.8 hPa | 0 mm | - | - | - |
| 1777911008 | 20° C | 68% | 1008.6 hPa | 0 mm | - | - | - |
| 1777910411 | 20.56° C | 67% | 1008.5 hPa | 0 mm | - | - | - |
| 1777909808 | 20° C | 67% | 1008.6 hPa | 0 mm | - | - | - |
| 1777909208 | 20.56° C | 66% | 1008.7 hPa | 0 mm | - | - | - |
| 1777908610 | 21.11° C | 64% | 1008.6 hPa | 0 mm | - | - | - |
| 1777908008 | 21.11° C | 64% | 1008.7 hPa | 0 mm | - | - | - |
| 1777907409 | 21.11° C | 63% | 1009 hPa | 0 mm | - | - | - |
| 1777906810 | 21.11° C | 64% | 1008.7 hPa | 0 mm | - | - | - |
| 1777906209 | 21.67° C | 64% | 1008.7 hPa | 0 mm | - | - | - |
| 1777905609 | 21.67° C | 64% | 1008.6 hPa | 0 mm | - | - | - |
| 1777905011 | 21.67° C | 62% | 1008.8 hPa | 0 mm | - | - | - |
| 1777904409 | 21.67° C | 62% | 1009 hPa | 0 mm | - | - | - |
* Rain latest hour (hover to see other rain measurements)
** Current wind speed in m/s (hover to see current wind gust speed)